EHI
7 7 14 20 19 15 12 12 12 11 13 14 14 12 8 7 5 3 1 1 1 1 1 1 0 0 1 0 0 0 1 1 1 0 0 1 1 1 0 0 0 0 0
8 8 14 20 19 15 12 11 11 12 13 12 12 11 8 6 5 4 2 2 2 2 2 1 0 0 1 0 0 0 0 0 0 0 0 0 0 0 0 0 0 0 0
9 9 12 17 18 16 12 10 9 10 11 10 8 7 5 3 3 3 3 3 2 1 1 1 0 0 0 0 0 0 0 0 0 0 0 0 0 0 0 0 0 0 0
9 8 10 14 17 15 12 8 6 7 7 7 5 3 2 1 1 1 1 2 2 1 1 1 1 1 0 0 0 0 0 0 0 0 0 0 0 0 0 0 0 0 0
7 7 10 13 14 13 11 9 6 5 6 5 4 3 2 0 0 0 0 1 1 1 1 1 2 1 1 1 1 1 0 0 0 0 0 0 0 0 0 0 0 0 0
8 9 11 12 12 12 11 9 8 6 5 5 4 3 1 0 0 0 0 0 0 0 0 1 1 1 1 2 2 1 0 0 0 0 0 0 0 0 0 0 0 0 0
11 11 13 13 13 12 9 7 6 5 5 5 4 2 1 0 0 0 0 0 0 0 0 0 0 0 1 1 1 1 0 0 0 0 0 0 0 0 0 0 0 0 0
12 12 12 12 12 10 6 3 2 3 4 4 4 2 1 0 0 0 0 0 0 0 0 0 0 0 1 1 1 0 0 0 0 0 0 0 0 0 0 1 1 0 0
10 9 8 7 7 6 3 1 0 1 2 3 3 2 1 0 0 0 0 0 0 0 0 0 0 1 2 2 1 0 0 0 0 0 0 0 0 0 1 2 2 1 0
6 5 3 2 2 2 1 0 0 0 1 2 2 2 1 0 0 0 0 0 0 0 0 0 0 1 2 2 1 0 0 0 0 0 0 0 0 1 3 4 3 1 0
4 3 1 0 1 1 0 0 0 0 0 1 1 1 0 0 0 0 0 0 0 0 0 0 0 0 1 1 0 0 0 0 0 0 0 0 0 2 5 6 5 4 3
1 2 2 1 0 0 0 0 0 0 0 0 0 0 0 0 0 0 0 0 0 0 0 0 0 0 0 0 0 0 0 0 0 0 0 0 0 2 4 6 6 6 5
0 1 1 1 0 0 0 0 0 0 0 0 0 0 0 0 0 0 0 0 0 0 0 0 0 0 0 0 0 0 0 0 0 0 0 0 0 0 2 3 4 4 3
0 0 0 0 0 0 0 0 0 0 0 0 0 0 0 0 0 0 0 0 0 0 0 0 0 0 0 0 0 0 0 0 0 0 0 0 0 0 0 1 1 1 1
0 0 0 0 0 0 0 0 0 0 0 0 0 0 0 0 0 0 0 0 0 0 0 0 0 0 0 0 0 0 0 0 0 0 0 0 0 0 0 0 0 0 0
0 0 0 0 0 0 0 0 0 0 0 0 1 0 0 0 0 0 0 0 0 0 0 0 0 0 0 0 0 0 0 0 0 0 0 0 0 0 0 0 0 0 0
0 0 0 0 0 0 0 0 0 0 0 0 0 0 0 0 0 0 0 0 0 0 0 0 0 0 0 0 0 0 0 0 0 0 0 0 0 0 0 0 0 0 0
0 0 0 0 0 0 0 0 0 0 0 0 0 0 0 0 0 0 0 0 0 0 0 0 0 0 0 0 0 0 0 0 0 0 0 0 0 0 0 0 0 0 0
0 0 0 0 0 0 0 0 0 0 0 0 0 0 0 0 0 0 0 0 0 0 0 0 0 0 0 0 0 0 0 0 0 0 0 0 0 0 0 0 0 0 0
0 0 0 0 0 0 0 0 0 0 0 0 0 0 0 0 0 0 0 0 0 0 0 0 0 0 0 0 0 0 0 0 0 0 0 0 0 0 0 0 0 0 0
0 0 0 0 0 0 0 0 0 0 0 0 0 0 0 0 0 0 0 0 0 0 0 0 0 0 0 0 0 0 0 0 0 0 0 0 0 0 0 0 0 0 0
0 0 0 0 0 0 0 0 0 0 0 0 0 0 0 0 0 0 0 0 0 0 0 0 0 0 0 0 0 0 0 0 0 0 0 0 0 0 0 0 0 0 0
0 0 0 0 0 0 0 0 0 0 0 0 0 0 0 0 0 0 0 0 0 0 0 0 0 0 0 0 0 0 0 0 0 0 0 0 0 0 0 0 0 0 0
0 0 0 0 0 0 0 0 0 0 0 0 0 0 0 0 0 0 0 0 0 0 0 0 0 0 0 0 0 0 0 0 0 0 0 0 0 0 0 0 0 0 0
0 0 0 0 0 0 0 0 0 0 0 0 0 0 0 0 0 0 0 0 0 0 0 0 0 0 0 0 0 0 0 0 0 0 0 0 0 0 0 0 0 0 0
0 0 0 0 0 0 0 0 0 0 0 0 0 0 0 0 0 0 0 0 0 0 0 0 0 0 0 0 0 0 0 0 0 0 0 0 0 0 0 0 0 0 0
Wind_Speed
7 8 10 10 11 11 11 11 11 10 10 10 9 9 8 8 8 7 6 6 6 5 5 4 4 4 4 4 3 3 3 4 4 4 4 3 3 4 4 4 3 2 5
10 10 11 11 11 11 11 11 11 11 11 10 9 9 8 8 8 7 7 6 6 5 5 4 3 3 3 3 3 3 2 2 2 2 2 1 2 3 3 3 3 2 4
11 11 10 11 11 11 11 11 11 10 10 10 10 9 9 8 8 7 7 7 6 6 5 4 3 3 3 3 3 2 2 1 0 0 1 1 1 2 3 2 2 2 3
10 10 10 11 11 11 11 11 10 10 10 10 10 9 9 9 8 7 7 6 6 7 6 5 4 3 3 3 2 1 1 1 1 1 1 1 1 3 3 2 2 2 2
11 10 10 11 11 11 11 10 10 10 10 9 9 9 9 9 8 8 7 7 6 6 6 6 5 4 3 2 1 1 1 2 2 2 2 1 0 3 3 2 2 2 1
10 10 10 11 11 10 10 10 10 10 9 9 9 9 8 8 8 8 8 7 6 5 6 6 5 5 4 3 1 1 1 2 2 2 2 1 0 2 3 2 2 2 2
10 9 10 11 11 10 10 9 9 9 9 8 8 8 7 7 7 7 7 7 7 5 5 5 5 5 4 4 3 2 2 2 2 2 2 1 0 2 3 2 2 3 3
10 9 9 11 11 10 10 9 9 8 8 8 7 7 6 6 7 7 7 7 7 6 5 4 4 4 4 3 3 2 2 2 2 2 1 1 0 1 2 2 2 3 4
9 8 6 6 8 10 10 9 9 8 8 7 7 7 6 6 6 6 6 6 6 6 5 4 4 3 3 3 2 3 2 3 2 1 2 0 1 1 2 2 3 4 4
7 7 6 6 6 5 6 8 8 7 6 6 6 5 5 5 5 5 5 5 5 5 5 4 3 3 3 3 3 3 3 3 2 2 1 0 2 2 3 3 3 4 5
6 5 5 5 5 5 4 6 6 5 4 4 3 2 3 2 2 2 3 4 5 5 5 5 4 3 3 3 3 3 3 2 2 1 1 1 2 3 4 4 4 4 5
6 5 5 5 5 4 3 3 2 2 2 2 1 2 2 2 1 2 2 3 4 5 5 5 5 4 3 1 2 2 1 2 2 1 1 2 4 5 6 5 5 5 5
6 5 5 5 4 3 2 2 1 1 1 1 2 1 1 1 1 1 1 1 2 3 3 4 3 2 2 1 1 1 2 2 1 1 1 2 4 6 7 7 7 7 7
6 5 5 5 4 3 2 2 2 1 1 1 1 1 1 1 1 1 1 2 1 1 2 2 2 2 2 2 2 2 2 2 1 1 2 3 5 7 8 9 9 9 9
6 5 5 5 4 3 2 1 1 1 1 1 1 1 1 1 1 1 1 1 2 2 2 2 2 3 2 2 2 2 3 3 3 2 1 3 5 7 9 10 10 10 10
6 6 5 5 4 4 2 1 1 1 1 1 1 1 1 1 1 1 1 1 2 2 2 2 3 3 2 2 3 3 3 3 3 2 2 3 5 7 9 11 11 11 12
7 6 6 5 4 4 3 2 1 1 1 1 1 1 1 1 1 1 1 1 2 2 3 2 3 3 3 3 3 3 3 3 3 3 3 2 3 5 8 10 11 12 13
7 7 6 5 5 4 3 2 1 1 1 1 1 1 1 1 1 1 1 1 2 2 2 2 2 2 3 3 3 3 3 3 4 4 3 3 2 3 5 9 11 12 13
7 7 6 5 5 4 3 2 2 1 1 1 1 1 0 0 1 0 1 1 1 1 2 3 2 2 3 4 4 3 3 3 4 4 4 4 3 3 3 6 9 11 13
7 7 6 5 5 4 2 1 1 1 1 1 1 1 0 0 0 1 1 1 1 1 2 2 3 2 2 3 5 4 4 4 3 3 4 3 3 4 4 4 4 6 12
7 7 6 5 4 4 2 2 2 1 1 0 1 1 1 1 0 0 1 1 1 1 2 2 2 3 3 3 3 4 4 4 4 2 3 3 4 4 4 4 4 4 5
7 7 7 6 5 4 3 2 2 2 1 1 1 1 1 1 1 1 1 1 1 1 2 2 2 2 2 2 2 3 4 4 2 3 3 4 4 3 4 5 5 5 4
7 7 7 6 5 4 4 2 1 1 0 1 1 1 2 2 2 1 2 1 2 1 2 2 2 2 3 3 1 1 2 4 4 3 3 4 3 3 4 4 5 5 5
7 7 7 7 6 4 4 3 3 2 2 2 2 2 2 2 2 2 2 2 2 2 2 3 2 2 2 3 3 2 3 3 3 5 3 3 4 5 5 5 5 6 5
7 6 6 6 6 5 4 4 3 2 2 1 1 2 2 2 3 3 2 2 2 2 3 3 3 3 2 3 3 3 4 3 4 5 7 5 4 4 5 5 5 5 5
7 6 6 6 5 5 5 4 4 3 3 2 2 2 2 2 2 3 3 2 2 2 3 3 3 4 3 4 4 3 3 3 3 4 6 8 7 5 5 5 4 5 4
Wind_Direction
106 107 99 93 89 83 78 74 73 71 70 69 70 71 70 69 71 70 71 74 72 70 74 79 84 83 85 74 65 70 79 84 83 82 84 91 98 102 101 98 90 91 106
111 109 99 93 89 85 81 75 72 70 68 66 65 67 67 66 66 65 64 66 65 62 64 69 75 84 89 88 79 69 76 89 87 88 103 118 127 126 118 107 91 103 115
111 111 100 92 90 86 82 78 75 72 69 66 63 62 62 62 62 63 62 60 58 55 53 54 62 70 71 77 78 78 66 45 63 172 205 204 157 149 136 113 98 105 122
111 109 103 96 91 87 83 79 77 73 70 66 62 60 59 58 56 56 57 57 56 53 49 48 51 56 60 66 67 61 37 339 320 264 239 223 169 147 147 132 126 120 122
104 104 104 100 95 90 85 81 77 74 71 66 62 59 58 57 55 53 50 50 54 54 49 43 44 50 53 47 44 40 337 314 315 294 282 275 126 152 153 143 142 155 162
106 107 110 103 97 92 87 82 77 73 70 66 62 59 56 55 54 50 50 47 47 51 47 41 38 42 42 30 11 346 319 321 319 298 285 283 152 169 168 166 171 180 200
106 107 112 107 103 96 91 86 80 74 70 66 62 59 57 55 53 50 46 42 39 43 46 41 36 34 33 30 26 6 335 309 288 300 307 321 61 165 180 190 207 214 222
106 106 112 112 107 100 93 88 82 76 70 65 62 58 54 53 52 50 47 41 37 35 37 36 28 22 20 20 15 358 348 322 289 294 310 334 345 190 199 210 228 228 231
110 113 113 114 109 104 97 91 86 79 74 69 64 58 53 53 50 49 45 38 33 28 25 19 13 9 7 358 351 343 317 309 308 289 284 333 308 244 234 242 251 245 242
113 119 125 122 115 108 103 100 96 88 81 76 67 58 51 50 48 43 38 31 24 16 10 3 350 342 334 329 319 314 311 289 265 269 275 268 294 282 268 262 264 262 253
129 129 128 120 111 108 112 113 113 109 105 97 81 57 41 43 45 42 47 26 13 6 359 352 340 324 312 299 298 297 295 260 250 240 241 239 274 278 279 273 271 267 262
144 136 120 113 112 110 111 121 136 127 125 105 76 55 47 34 22 33 40 18 359 351 346 339 332 321 310 293 289 287 260 267 260 235 210 214 272 276 276 274 270 270 270
147 135 121 117 115 112 109 119 103 99 98 78 63 55 47 32 18 20 7 351 340 346 335 327 321 314 299 296 281 275 276 263 263 254 208 229 266 274 275 272 270 267 268
138 128 122 121 122 121 118 115 125 119 104 90 65 53 49 34 17 2 8 346 349 338 328 322 314 317 304 296 281 275 287 282 265 255 225 236 265 275 277 273 270 267 269
139 135 131 127 128 127 119 132 117 114 109 111 89 58 64 56 14 4 357 355 349 339 336 327 325 321 310 299 286 284 278 281 272 264 234 242 259 272 278 276 272 270 268
145 143 137 136 135 131 133 142 127 125 132 120 101 74 65 68 25 14 1 353 345 331 324 325 328 319 306 296 285 281 278 282 277 270 248 245 257 269 276 277 276 275 272
149 147 143 142 137 139 144 151 134 141 136 127 128 103 69 67 24 9 360 347 331 324 326 326 326 323 319 313 298 289 279 278 280 268 259 246 249 263 273 277 278 277 275
151 149 148 150 142 142 138 138 138 133 116 127 137 123 88 41 21 356 347 331 328 331 332 327 332 332 323 312 299 285 277 273 276 271 259 249 244 253 271 277 278 278 280
151 147 147 147 147 145 143 153 152 143 145 147 114 104 88 347 342 345 313 301 325 332 328 322 333 328 317 311 297 284 273 267 267 273 267 250 241 240 246 269 277 281 282
146 144 146 143 146 141 138 138 123 131 149 134 127 149 171 269 332 334 310 313 327 330 322 322 321 321 308 302 302 297 279 269 265 258 260 262 255 251 249 254 258 270 276
146 147 150 150 153 145 145 151 150 164 174 157 187 189 209 225 234 283 305 308 309 297 294 303 308 310 310 316 313 306 288 268 261 259 271 271 263 261 257 255 251 248 261
154 153 155 159 159 154 160 164 165 169 185 187 207 219 226 232 241 256 259 272 282 287 300 302 302 303 308 331 314 313 313 310 300 292 274 259 258 266 268 268 263 258 257
159 160 163 161 159 158 159 148 145 129 170 241 227 218 225 225 229 245 258 267 282 279 277 285 289 295 297 303 300 282 294 291 306 273 262 267 264 266 268 271 268 263 261
164 160 160 160 159 161 155 156 167 184 206 223 219 226 236 230 235 237 246 253 265 271 275 277 285 276 272 283 288 261 253 270 291 301 291 275 281 278 270 275 272 266 259
156 157 160 158 160 161 162 169 179 195 216 221 221 234 242 237 231 236 241 246 260 265 269 275 278 274 262 261 266 273 275 275 263 274 290 291 283 269 266 265 265 265 262
152 155 161 161 165 167 170 178 183 193 207 216 231 234 244 246 238 237 240 239 254 262 264 265 264 265 264 264 263 260 261 260 263 267 280 291 293 286 276 270 266 267 267